Hourly Data Report for May 18, 2020

STE-ANNE-DE-BELLEVUE 1
QUEBEC
Current Station Operator: ECCC - MSC

45°25'38.000" N
73°55'45.000" W
39.00 m
702FHL8
71377
WVQ

Download Data

Hourly Data (May 2020)
Hourly Data Report for May 18, 2020
TIME
LST
Temp Definition
°C
Dew Point Definition
°C
Rel Hum Definition
%
Precip. Amount Definition
mm

Wind Dir Definition
10's deg

Wind Spd Definition
km/h
Visibility Definition
km
Stn Press Definition
kPa
Hmdx Definition


Wind Chill Definition


Weather Definition


00:00 15.1 2.7 43 0.0 4 14   101.87     LegendNANA
01:00 14.0 -4.3 28 0.0 4 21   101.92     LegendNANA
02:00 12.9 -6.3 26 0.0 4 20   101.95     LegendNANA
03:00 11.5 -7.0 27 0.0 5 19   101.97     LegendNANA
04:00 10.4 -7.4 28 0.0 4 21   102.00     LegendNANA
05:00 9.7 -7.2 30 0.0 4 15   102.03     LegendNANA
06:00 9.7 -6.8 31 0.0 4 17   102.08     LegendNANA
07:00 10.2 -7.1 29 0.0 3 20   102.10     LegendNANA
08:00 12.3 -7.0 25 0.0 5 14   102.12     LegendNANA
09:00 13.5 -7.4 23 0.0 4 20   102.12     LegendNANA
10:00 14.9 -4.6 26 0.0 4 17   102.09     LegendNANA
11:00 15.9 -4.8 24 0.0 3 16   102.07     LegendNANA
12:00 16.3 -8.1 18 0.0 5 15   102.04     LegendNANA
13:00 16.9 -4.1 23 0.0 3 13   102.00     LegendNANA
14:00 17.9 -5.4 20 0.0 7 13   101.97     LegendNANA
15:00 18.3 -6.3 18 0.0 7 15   101.93     LegendNANA
16:00 18.7 -5.2 19 0.0 8 15   101.92     LegendNANA
17:00 18.6 -6.2 18 0.0 5 15   101.92     LegendNANA
18:00 17.6 -5.7 20 0.0 7 13   101.92     LegendNANA
19:00 16.8 -5.8 21 0.0 6 12   101.94     LegendNANA
20:00 15.4 -6.2 22 0.0 6 9   101.97     LegendNANA
21:00 14.9 -6.4 22 0.0 5 16   102.04     LegendNANA
22:00 14.1 -6.8 23 0.0 5 21   102.11     LegendNANA
23:00 12.8 -6.1 26 0.0 5 21   102.14     LegendNANA

Notes on Data Quality.

Legend

  • E = Estimated
  • M = Missing
  • NA = Not Available*
  • [empty] = Indicates an unobserved value
Date modified: